RADUGA 32 [-]

Last updated on Jan. 18, 2020, 4:38 a.m. UTC

1 23448U 94087A   20017.46052265 -.00000166  00000-0  00000+0 0  9992
2 23448  14.7626   9.7501 0004719 245.8545 106.5576  1.00276027109459
UTC
Height (km)
Latitude
Longitude
Inclination
Orbital Period
UTC large
Height (km)
Speed (km/s)
/
Latitude / Longitude
Inclination (degrees)
Orbital Period (minutes)
Azimuth
Elevation
Range (km)
Doppler Factor
iOS Compass Heading
iOS Angle

Next 30 passes for location: Hong Kong

Rise time Rise Azimuth (degrees) Set time Set Azimuth (degrees) Duration Max altitude (degrees)

No matching passes for this satellites